FW2359 Weather Reports


Display with metric or nautical units.
time (UTC)temp
F
wind
direction
speed
MPH
gust
MPH
rain 1hr
in
rain 24hr
in
rain mn
in
humidity
%
barometer
mb
20260505173030 64 248 11.0 24.0 0.00 0.00 0.00 62 1014.4
20260505171528 63 248 11.0 22.0 0.00 0.00 0.00 64 1014.4
20260505170034 62 253 12.0 20.0 0.00 0.00 0.00 65 1014.4
20260505164531 62 251 11.0 18.0 0.00 0.00 0.00 66 1014.4
20260505163029 61 248 12.0 20.0 0.00 0.00 0.00 67 1014.3
20260505153030 59 240 10.0 21.0 0.00 0.00 0.00 73 1014.1
20260505151532 59 250 9.0 20.0 0.00 0.00 0.00 73 1014.1
20260505124608 57 236 9.0 23.0 0.00 0.00 0.00 78 1012.9
20260505123144 57 230 11.0 20.0 0.00 0.00 0.00 77 1012.8
20260505121530 57 243 10.0 21.0 0.00 0.00 0.00 77 1012.6
20260505120031 57 241 10.0 18.0 0.00 0.00 0.00 77 1012.5
20260505113034 58 230 9.0 20.0 0.00 0.00 0.00 76 1012.6
20260505110107 58 258 5.0 15.0 0.00 0.00 0.00 76 1012.3
20260505101531 59 223 12.0 20.0 0.00 0.00 0.00 74 1012.0
20260505100107 60 235 12.0 19.0 0.00 0.00 0.00 73 1011.9
20260505094530 60 235 9.0 21.0 0.00 0.00 0.00 73 1011.8
20260505093031 61 238 12.0 23.0 0.00 0.00 0.00 73 1011.8
20260505091529 61 238 12.0 23.0 0.00 0.00 0.00 72 1011.6
20260505090030 62 229 11.0 21.0 0.00 0.00 0.00 72 1011.3
20260505084531 62 232 8.0 18.0 0.00 0.00 0.00 73 1011.2
20260505083116 62 233 8.0 16.0 0.00 0.00 0.00 73 1011.3
20260505081530 62 259 5.0 14.0 0.00 0.00 0.00 73 1011.2
20260505080031 63 268 2.0 7.0 0.00 0.00 0.00 72 1011.2
20260505074530 63 270 4.0 7.0 0.00 0.00 0.00 71 1011.0
20260505073031 64 258 5.0 14.0 0.00 0.00 0.00 71 1010.9
20260505070107 64 267 6.0 13.0 0.00 0.00 0.00 69 1010.7
20260505064532 65 261 5.0 12.0 0.00 0.00 0.00 69 1010.6
20260505063029 65 268 6.0 11.0 0.00 0.00 0.00 68 1010.4
20260505061530 65 262 7.0 13.0 0.00 0.00 0.00 68 1010.4
20260505054530 66 266 7.0 11.0 0.00 0.00 0.00 66 1010.4
20260505053106 66 255 11.0 19.0 0.00 0.00 0.00 65 1010.2
20260505051531 66 256 11.0 20.0 0.00 0.00 0.00 64 1010.1
20260505050107 66 258 11.0 21.0 0.00 0.00 0.00 63 1010.0
20260505041531 67 259 12.0 20.0 0.00 0.00 0.00 60 1009.4
20260505033107 68 257 11.0 17.0 0.00 0.00 0.00 57 1009.1
20260505031528 69 255 12.0 17.0 0.00 0.00 0.00 56 1008.7
20260505030108 70 253 12.0 19.0 0.00 0.00 0.00 55 1008.5
20260505023033 72 251 11.0 18.0 0.00 0.00 0.00 52 1008.3
20260505021530 73 247 12.0 19.0 0.00 0.00 0.00 51 1008.2
20260505014532 74 253 12.0 20.0 0.00 0.00 0.00 50 1008.2
20260505013032 75 256 12.0 21.0 0.00 0.00 0.00 49 1008.1
20260505010034 75 257 12.0 20.0 0.00 0.00 0.00 48 1008.1
20260505003031 75 258 13.0 24.0 0.00 0.00 0.00 48 1008.1
20260505001533 76 254 13.0 21.0 0.00 0.00 0.00 47 1008.1
20260504234531 76 248 13.0 21.0 0.00 0.00 0.00 47 1008.0
20260504233031 76 252 13.0 24.0 0.00 0.00 0.00 46 1008.0
20260504231529 76 253 11.0 18.0 0.00 0.00 0.00 47 1008.2
20260504230033 76 258 12.0 19.0 0.00 0.00 0.00 48 1008.5
20260504223030 75 254 12.0 20.0 0.00 0.00 0.00 49 1008.7
20260504220032 75 253 15.0 24.0 0.00 0.00 0.00 49 1008.7
20260504214532 75 258 12.0 21.0 0.00 0.00 0.00 49 1009.0
20260504213030 74 252 13.0 20.0 0.00 0.00 0.00 49 1009.2
20260504211533 74 254 13.0 21.0 0.00 0.00 0.00 49 1009.3
20260504210030 74 261 11.0 22.0 0.00 0.00 0.00 49 1009.5
20260504204531 74 263 10.0 19.0 0.00 0.00 0.00 49 1009.7
20260504201530 74 257 7.0 15.0 0.00 0.00 0.00 49 1010.0
20260504200032 73 256 7.0 14.0 0.00 0.00 0.00 50 1010.2
20260504194532 73 256 9.0 19.0 0.00 0.00 0.00 50 1010.2
20260504191531 72 259 7.0 14.0 0.00 0.00 0.00 52 1010.4
20260504190031 71 265 7.0 16.0 0.00 0.00 0.00 54 1010.5
20260504184532 70 269 9.0 20.0 0.00 0.00 0.00 55 1010.6
20260504183030 69 269 9.0 18.0 0.00 0.00 0.00 56 1010.6
20260504181536 68 263 12.0 22.0 0.00 0.00 0.00 57 1010.6
20260504180030 68 264 14.0 24.0 0.00 0.00 0.00 58 1010.6
20260504174607 67 268 13.0 23.0 0.00 0.00 0.00 59 1010.7